Regional Weather Roundup
Issued by NWS Upton, NY

Current Version | Previous Version | Text Only | Print | Product List | Glossary Off
Versions: 1 2 3 4 5 6 7 8 9 10 11 12 13 14 15 16 17 18 19 20 21 22 23 24 25 26 27 28 29 30 31 32 33 34 35 36 37 38 39 40 41 42 43 44 45 46 47 48 49 50
000 ASUS41 KOKX 032018 RWROKX REGIONAL WEATHER ROUNDUP NATIONAL WEATHER SERVICE NEW YORK NY 400 PM EDT WED JUN 03 2015 NOTE: "FAIR" INDICATES FEW OR NO CLOUDS BELOW 12,000 FEET WITH NO SIGNIFICANT WEATHER AND/OR OBSTRUCTIONS TO VISIBILITY. NYZ071-072-176-178-NJZ106-104-032100- NEW YORK CITY METRO AREA CITY SKY/WX TMP DP RH WIND PRES REMARKS CENTRAL PARK SUNNY 69 49 48 VRB3 30.21F LAGUARDIA APRT PTSUNNY 66 51 58 SE9 30.18F KENNEDY INTL PTSUNNY 63 51 65 SE13 30.21S NEWARK/LIBERTY PTSUNNY 68 50 51 SE7 30.17F BRNX BOT. GARD N/A 68 45 42 S9 30.19F TETERBORO SUNNY 69 46 43 E8 30.16F $$ NYZ177-179-078>081-032100- LONG ISLAND NEW YORK CITY SKY/WX TMP DP RH WIND PRES REMARKS FARMINGDALE MOSUNNY 62 51 67 SE10 30.21S ISLIP PTSUNNY 61 50 67 SE14 30.19F SHIRLEY MOSUNNY 60 51 72 SE13 30.22S WESTHAMPTON MOSUNNY 58 49 72 SE9G21 30.23S MONTAUK POINT N/A 60 49 66 E7 30.24F $$ NYZ052-065-067-032100- HUDSON VALLEY CITY SKY/WX TMP DP RH WIND PRES REMARKS WHITE PLAINS MOSUNNY 66 52 60 S9 30.18F NEWBURGH NOT AVBL MONTGOMERY MOSUNNY 70 46 42 CALM 30.17F POUGHKEEPSIE MOSUNNY 70 46 42 VRB5 30.17F ALBANY MOSUNNY 69 43 38 NE8 30.20F $$ NJZ001-105-106-008-010-013-015-019>022-104-032100- NEW JERSEY CITY SKY/WX TMP DP RH WIND PRES REMARKS NEWARK/LIBERTY PTSUNNY 68 50 51 SE7 30.17F TETERBORO SUNNY 69 46 43 E8 30.16F CALDWELL SUNNY 71 47 42 E7 30.17F MORRISTOWN PTSUNNY 77 54 44 SE6 30.17F SOMERVILLE MOSUNNY 70 49 47 CALM 30.15F SUSSEX MOSUNNY 70 48 45 N9 30.18F ANDOVER N/A 71 52 50 VRB5 30.17F TRENTON MOSUNNY 68 51 54 VRB5 30.17F MILLVILLE CLOUDY 64 52 64 E13 30.17F ATLANTIC CITY CLOUDY 62 52 69 NE13G22 30.18F WRIGHTSTOWN LGT RAIN 66 50 55 NE7 30.16F TOMS RIVER PTSUNNY N/A N/A N/A SE10 30.19F BELMAR CLOUDY 61 46 59 E8 30.19F $$ PAZ047>061-062-071-032100- EASTERN PENNSYLVANIA CITY SKY/WX TMP DP RH WIND PRES REMARKS PHILADELPHIA CLOUDY 69 51 52 E10 30.18F ALLENTOWN MOSUNNY 69 52 54 VRB5 30.17F SCRANTON MOSUNNY 74 47 38 NE5 30.15F $$ CTZ002-004>006-009-010-012-RIZ004-006-007-MAZ004-011-015-032100- SOUTHERN NEW ENGLAND IN CT CITY SKY/WX TMP DP RH WIND PRES REMARKS BRADLEY INTL MOSUNNY 69 44 40 VRB3 30.18F HARTFORD SUNNY 68 46 45 SE9 30.18F DANBURY MOSUNNY 68 46 45 CALM 30.19F WTRBRY/OXFORD MOSUNNY 66 45 45 VRB5 30.21S BRIDGEPORT MOSUNNY N/A N/A N/A MISG 30.20F MERIDEN SUNNY 71 42 35 VRB6 30.19F NEW HAVEN MOSUNNY 65 47 52 SE9 30.20F CHESTER FAIR 61 50 67 S8 30.21S GROTON MOSUNNY 59 48 67 SE9 30.22F WILLIMANTIC SUNNY 67 44 43 CALM 30.19F IN RI CITY SKY/WX TMP DP RH WIND PRES REMARKS PROVIDENCE PTSUNNY 61 47 59 SE5 30.22F BLOCK ISLAND MOSUNNY 57 46 67 SE13 30.23F WESTERLY MOSUNNY 59 47 64 SE13 30.23S IN MA CITY SKY/WX TMP DP RH WIND PRES REMARKS BOSTON MOSUNNY 54 47 77 SE12 30.25S WORCESTER SUNNY 63 46 54 VRB3 30.20F WESTFIELD SUNNY 70 43 37 NE6 30.18F PROVINCETOWN SUNNY 55 43 62 NE7 30.26S NANTUCKET MOSUNNY 56 43 61 NE15 30.24S $$ ANZ330-335-338-340-345-350-353-355-032100- COASTAL MARINE OBSERVATIONS STATION/POSITION TIME SKY/WX TEMP WIND PRES VSBY WAVE AIR SEA DIR/SP/G HT/PER (UTC) (F) (DEG/KT/KT) (MB) (MI) (FT/S) NY HARB ENTRANCE 1950 56 58 120/ 10/ 12 1022.2 3/ 6 4S FIRE IS 1903 55 N/A 3/ 6 20S FIRE ISLAND 1950 55 56 90/ 14/ 14 1022.4 4/ 7 GREAT SOUTH BAY 1900 55 64 130/ 10/ 12 N/A 23SW MTP 1950 54 57 100/ 12/ 14 1023.1 3/ 8 HUDSON CANYON NOT AVBL KINGS POINT 1900 65 56 20/ 7/ 10 1021.8 CENTRAL LI SOUND 1900 59 59 120/ 2/ 6 N/A EASTERN LI SOUND 1900 55 150/ 8/ 10 N/A ROBBINS REEF 1900 58 180/ 14/ 15 1021.2 $$ >>>>>>>>>>>>>>>>>>>>>>>>>>>> KEY <<<<<<<<<<<<<<<<<<<<<<<<<<< > < > SKY/WX - SKY CONDITION/PRESENT WEATHER < > TMP - TEMPERATURE IN FAHRENHEIT < > DP - DEWPOINT IN FAHRENHEIT < > RH - RELATIVE HUMIDITY IN PERCENT < > WIND - DIRECTION AND SPEED IN MPH < > PRES - MEAN SEA LEVEL PRESSURE IN INCHES OF HG < > WCI - WIND CHILL INDEX < > VSB - VISIBILITY IN MILES < > HX - HEAT INDEX < > TC - TEMPERATURE IN CELSIUS < > VRB - VARIABLE WIND DIRECTION < > < >>>>>>>>>>>>>>>>>>>>>>>>>>>> KEY <<<<<<<<<<<<<<<<<<<<<<<<<<<

USA.gov is the U.S. government's official web portal to all federal, state and local government web resources and services.